{"data":{"norad_id":58353,"epoch":"2026-09-19T16:30:14.866848Z","epoch_age_seconds":213876,"freshness":"STALE","line1":"1 58353U 23177C   26262.68767207  .00001367  00000+0  59200-4 0  9991","line2":"2 58353  43.0007 193.2069 0001152 268.1386  91.9333 15.27577727159501","mean_motion":15.27577727,"eccentricity":0.0001152,"inclination_deg":43.0007,"raan_deg":193.2069,"arg_perigee_deg":268.1386,"mean_anomaly_deg":91.9333,"bstar":5.92e-5,"rev_number":15950,"period_min":94.266888980373,"perigee_km":482.26549280546,"apogee_km":483.84631165014,"semimajor_km":6861.1929022278,"source":"CELESTRAK","updated_at":"2026-09-21T09:00:33.841088Z"}}